Find OneWeb SL0290

NORAD ID: 49080 Int'l Des: 2021-075 Owner: ONEWEBN Country: UK Constellation: oneweb operational
LEOCIRCULARPOLARONEWEB_TYPE

リアルタイム位置

3D地球を読み込み中...

OneWeb SL0290について

説明を読み込み中...

次回通過

Passes for default location (London). Set your location on the main map for personalized predictions.

高度履歴

Loading altitude history...

軌道要素

1 49080U 21075F 26123.98359723 .00000189 00000-0 45437-3 0 9990
2 49080 87.9186 14.6366 0001483 65.4735 294.6551 13.17654199227799
Epoch: May 3, 2026 • Age: 10 hours

現在のステータス

高度 1200.7 km
速度 7.26 km/s
衛星直下点 47.74°N, 170.82°W
打ち上げ日 Aug 21, 2021
運用期間 4.7 years
タイプ internet

技術仕様

分類 Payload
質量 148.00 kg
乾燥質量 140.00 kg
総質量 148.00 kg
長さ 1.30 m
直径 1.00 m
スパン 5.00 m
形状 Trapezoid+2 pan
製造者 ONEWUS
バスタイプ ARROW
フェーズステータス In Orbit
所有者/国 ONEWEBN/UK

Most Searched